User: anonymous   Login
Location: Caltech
(34.1382°N, 118.1253°W)
Time: 00:22:52
(UTC-08:00)
Language:

Courier 1B - Orbit

View from above orbital plane
View from above orbital plane
View from above satellite
View from above satellite

Ground track
Ground track

The orbit data is extracted from the following two-line orbital elements,

1 00058U 60013A   15024.43116327  .00000109  00000-0  35238-4 0  8637
2 00058 028.3299 013.9317 0164911 311.3232 047.3225 13.46286940673337
Epoch (UTC): 24 January 2015 10:20:52
Eccentricity: 0.0164911
inclination: 28.3299°
perigee height: 963 km
apogee height: 1209 km
right ascension of ascending node: 13.9317°
argument of perigee: 311.3232°
revolutions per day: 13.46286940
mean anomaly at epoch: 47.3225°
orbit number at epoch: 67333

The dashed part of the orbit path shows where the satellite is in the earth's shadow,  

DLR